THOR ABLESTAR DEB, 1942

Orbit data source: Space-Track

THOR ABLESTAR DEB, 1942 is space debris in LEO originally from a launch on Thu, 29 Jun 1961 UTC launched from the Air Force Eastern Test Range (AFETR). Debris objects in space refer to the collection of defunct objects orbiting the Earth. Examples of debris include non-operational satellites, rocket bodies, and fragments generated from explosions, collisions, or faulty payload assembly.

Loading next visibility...
Identifier
1942, 1961-015HS
Orbit
LEO
Country
Flag of USUS
Related business
Manufacturer
Unknown
Mission
Spacecraft
Bus & Motor
Unknown
Mass
Unknown
Launch date (UTC)
1961-06-29 (65 years ago)
Launch vehicle
Unknown
Launch site
Air Force Eastern Test Range (AFETR)
Object type
Payload
Rocket body
Debris
Shape & HBR
Unknown shape, 0.1 m
Radar Cross Section
Medium (>0.1 m² and <1 m²)

Expand to show TLE details & history
Last TLE update: 7 hours ago

TLE from 7 hours ago
0 THOR ABLESTAR DEB
1 01942U 61015HS  26174.95141876  .00000650  00000-0  14418-2 0  9991
2 01942  67.2706 345.9213 0345636 245.1782 283.7789 13.13397990117704
Epoch: 2026-06-23T22:50Z
TLE epoch observation values (Epoch: 2026-06-23T22:50:02.580Z)
Latitude
13.72677°
Longitude
-94.54824°
Altitude
1,157.527 km
Speed
7.301 km/s
True Right ascension
10h 40m 18s
True Declination
13° 39' 07"
Sunlit
Object was in daylight at epoch
Visualization orbit readout
Latitude
Unknown
Longitude
Unknown
Altitude
Unknown
Speed
Unknown
Apparent Right ascension
Unknown
Apparent Declination
Unknown
Sunlit
N/A
Visualization observer readout
Local Sidereal Time
16:42:32
Azimuth
Unknown
Elevation
Unknown
Doppler factor
Unknown
Orbital elements
Apogee altitude
1,470.662 km
Perigee altitude
946.223 km
Semi-major axis
7,586.579 km
Eccentricity
0.03456
Inclination
67.2706°
RAAN
345.9213°
Arg. of periapsis
245.1782°
True anomaly
279.89519°
Mean anomaly
283.7789°
Eccentric anomaly
281.84069°
Mean motion
3.28454 °/min
Orbital period
109.6 mins
BSTAR
0.0014418

Documentation

Showing up to 5 results
|